FW4756 Weather Reports


Display with metric or nautical units.
time (UTC)temp
F
wind
direction
speed
MPH
gust
MPH
rain 1hr
in
rain 24hr
in
rain mn
in
humidity
%
barometer
mb
20210418092317 49 0.0 0.0 0.00 0.00 0.00 87 1018.6
20210418091028 49 0.0 0.0 0.00 0.00 0.00 85 1018.6
20210418090107 50 0.0 0.0 0.00 0.00 0.00 86 1018.6
20210418085235 50 0.0 0.0 0.00 0.00 0.00 88 1018.6
20210418084045 50 0.0 0.0 0.00 0.00 0.00 87 1018.6
20210418083033 50 0.0 0.0 0.00 0.00 0.00 85 1018.6
20210418082127 51 0.0 0.0 0.00 0.00 0.00 82 1018.7
20210418081059 51 0.0 0.0 0.00 0.00 0.00 83 1018.7
20210418080146 52 0.0 0.0 0.00 0.00 0.00 82 1018.7
20210418075342 52 0.0 0.0 0.00 0.00 0.00 81 1018.7
20210418074028 52 0.0 0.0 0.00 0.00 0.00 80 1018.7
20210418073041 52 0.0 0.0 0.00 0.00 0.00 78 1018.7
20210418072145 53 0.0 0.0 0.00 0.00 0.00 77 1018.6
20210418071046 53 0.0 0.0 0.00 0.00 0.00 77 1018.6
20210418070028 54 0.0 0.0 0.00 0.00 0.00 73 1018.6
20210418065329 54 0.0 0.0 0.00 0.00 0.00 73 1018.5
20210418064045 55 0.0 0.0 0.00 0.00 0.00 73 1018.5
20210418063027 55 0.0 0.0 0.00 0.00 0.00 73 1018.6
20210418062233 55 0.0 0.0 0.00 0.00 0.00 73 1018.6
20210418061026 56 0.0 0.0 0.00 0.00 0.00 71 1018.5
20210418060158 56 0.0 0.0 0.00 0.00 0.00 72 1018.6
20210418055339 57 0.0 0.0 0.00 0.00 0.00 70 1018.5
20210418054041 57 0.0 0.0 0.00 0.00 0.00 69 1018.5
20210418053058 58 0.0 0.0 0.00 0.00 0.00 68 1018.4
20210418052335 58 0.0 0.0 0.00 0.00 0.00 67 1018.3
20210418051034 59 0.0 0.0 0.00 0.00 0.00 67 1018.3
20210418050115 59 0.0 0.0 0.00 0.00 0.00 65 1018.3
20210418045236 59 0.0 0.0 0.00 0.00 0.00 64 1018.3
20210418044023 60 0.0 0.0 0.00 0.00 0.00 64 1018.3
20210418043044 61 0.0 0.0 0.00 0.00 0.00 62 1018.3
20210418042452 61 0.0 0.0 0.00 0.00 0.00 61 1018.2
20210418041042 62 0.0 0.0 0.00 0.00 0.00 59 1018.2
20210418040044 63 0.0 0.0 0.00 0.00 0.00 58 1018.1
20210418035314 64 0.0 0.0 0.00 0.00 0.00 55 1017.9
20210418034048 65 0.0 0.0 0.00 0.00 0.00 54 1017.9
20210418033056 66 0.0 0.0 0.00 0.00 0.00 53 1017.8
20210418032458 67 0.0 0.0 0.00 0.00 0.00 51 1017.7
20210418031040 68 0.0 0.0 0.00 0.00 0.00 50 1017.6
20210418030240 69 0.0 0.0 0.00 0.00 0.00 47 1017.6
20210418025436 70 0.0 0.0 0.00 0.00 0.00 45 1017.5
20210418024048 71 0.0 0.0 0.00 0.00 0.00 42 1017.5
20210418023037 72 0.0 0.0 0.00 0.00 0.00 36 1017.5
20210418022124 73 0.0 0.0 0.00 0.00 0.00 33 1017.5
20210418021030 73 0.0 0.0 0.00 0.00 0.00 31 1017.5
20210418020037 74 0.0 0.0 0.00 0.00 0.00 30 1017.5
20210418015433 75 0.0 0.0 0.00 0.00 0.00 31 1017.6
20210418014036 75 0.0 0.0 0.00 0.00 0.00 32 1017.7
20210418013226 76 0.0 0.0 0.00 0.00 0.00 32 1017.7
20210418012355 77 0.0 0.0 0.00 0.00 0.00 37 1017.8
20210418011031 78 0.0 0.0 0.00 0.00 0.00 37 1017.8
20210418010041 78 0.0 0.0 0.00 0.00 0.00 35 1017.9
20210418005226 78 0.0 0.0 0.00 0.00 0.00 36 1017.9
20210418004040 79 270 1.0 5.0 0.00 0.00 0.00 34 1017.9
20210418003038 80 0.0 0.0 0.00 0.00 0.00 33 1018.0
20210418002334 79 0.0 0.0 0.00 0.00 0.00 33 1018.1
20210418001034 79 0.0 0.0 0.00 0.00 0.00 33 1018.1
20210418000049 79 0.0 0.0 0.00 0.00 0.00 32 1018.1
20210417235350 79 0.0 0.0 0.00 0.00 0.00 31 1018.2
20210417234033 78 270 2.0 5.0 0.00 0.00 0.00 30 1018.3
20210417233040 78 330 1.0 3.0 0.00 0.00 0.00 30 1018.4
20210417232248 78 0.0 0.0 0.00 0.00 0.00 30 1018.5
20210417231031 79 0.0 0.0 0.00 0.00 0.00 31 1018.6
20210417230117 78 257 1.0 4.0 0.00 0.00 0.00 30 1018.7
20210417225232 78 265 2.0 4.0 0.00 0.00 0.00 32 1018.8
20210417224052 78 261 1.0 5.0 0.00 0.00 0.00 33 1018.9
20210417223045 78 270 2.0 4.0 0.00 0.00 0.00 34 1019.0
20210417222459 77 272 3.0 6.0 0.00 0.00 0.00 34 1019.2
20210417221037 76 261 4.0 8.0 0.00 0.00 0.00 34 1019.3
20210417220034 77 258 4.0 7.0 0.00 0.00 0.00 34 1019.4
20210417215141 77 0.0 0.0 0.00 0.00 0.00 34 1019.5
20210417214025 77 0.0 0.0 0.00 0.00 0.00 34 1019.6
20210417213038 77 0.0 0.0 0.00 0.00 0.00 35 1019.6
20210417212109 76 264 4.0 8.0 0.00 0.00 0.00 35 1019.6
20210417211040 76 248 0.0 6.0 0.00 0.00 0.00 34 1019.7
20210417210040 76 0.0 0.0 0.00 0.00 0.00 35 1019.8
20210417205333 75 0.0 0.0 0.00 0.00 0.00 37 1019.8
20210417204106 76 0.0 0.0 0.00 0.00 0.00 38 1019.8
20210417203024 76 0.0 0.0 0.00 0.00 0.00 37 1019.9
20210417202230 75 0.0 0.0 0.00 0.00 0.00 38 1019.9
20210417201025 75 0.0 0.0 0.00 0.00 0.00 39 1019.9
20210417200035 74 0.0 0.0 0.00 0.00 0.00 40 1020.0
20210417195259 74 0.0 0.0 0.00 0.00 0.00 39 1020.0
20210417194029 74 0.0 0.0 0.00 0.00 0.00 40 1020.1
20210417193035 74 0.0 0.0 0.00 0.00 0.00 39 1020.2
20210417192157 73 0.0 0.0 0.00 0.00 0.00 40 1020.3
20210417191031 73 0.0 0.0 0.00 0.00 0.00 40 1020.4
20210417190040 73 0.0 0.0 0.00 0.00 0.00 40 1020.4
20210417185248 73 0.0 0.0 0.00 0.00 0.00 38 1020.5
20210417184026 73 0.0 0.0 0.00 0.00 0.00 38 1020.5
20210417183034 73 0.0 0.0 0.00 0.00 0.00 37 1020.6
20210417182428 73 0.0 0.0 0.00 0.00 0.00 38 1020.7
20210417181033 70 0.0 0.0 0.00 0.00 0.00 41 1020.7
20210417180034 70 0.0 0.0 0.00 0.00 0.00 41 1020.7
20210417175254 70 0.0 0.0 0.00 0.00 0.00 41 1020.8
20210417174031 69 0.0 0.0 0.00 0.00 0.00 43 1020.8
20210417173030 70 0.0 0.0 0.00 0.00 0.00 42 1020.8
20210417172243 68 0.0 0.0 0.00 0.00 0.00 43 1020.8
20210417171036 67 0.0 0.0 0.00 0.00 0.00 45 1020.8
20210417170036 67 28 2.0 6.0 0.00 0.00 0.00 45 1020.8
20210417165327 65 0.0 0.0 0.00 0.00 0.00 48 1020.8
20210417164037 64 0.0 0.0 0.00 0.00 0.00 51 1020.8
20210417163037 64 0.0 0.0 0.00 0.00 0.00 49 1020.9
20210417162123 61 0.0 0.0 0.00 0.00 0.00 54 1020.9
20210417161029 61 0.0 0.0 0.00 0.00 0.00 55 1020.9
20210417160036 61 0.0 0.0 0.00 0.00 0.00 55 1020.9
20210417155159 59 0.0 0.0 0.00 0.00 0.00 58 1020.8
20210417154037 59 0.0 0.0 0.00 0.00 0.00 58 1020.8
20210417153044 58 0.0 0.0 0.00 0.00 0.00 60 1020.7
20210417152226 57 0.0 0.0 0.00 0.00 0.00 61 1020.7
20210417151031 57 0.0 0.0 0.00 0.00 0.00 61 1020.7
20210417150038 56 0.0 0.0 0.00 0.00 0.00 64 1020.7
20210417145336 54 0.0 0.0 0.00 0.00 0.00 64 1020.7
20210417144045 54 0.0 0.0 0.00 0.00 0.00 66 1020.7
20210417143034 52 0.0 0.0 0.00 0.00 0.00 68 1020.6
20210417142341 52 0.0 0.0 0.00 0.00 0.00 64 1020.6
20210417141051 50 0.0 0.0 0.00 0.00 0.00 70 1020.6
20210417140049 47 0.0 0.0 0.00 0.00 0.00 74 1020.5
20210417135350 45 0.0 0.0 0.00 0.00 0.00 78 1020.4
20210417134037 44 0.0 0.0 0.00 0.00 0.00 78 1020.3
20210417133044 44 0.0 0.0 0.00 0.00 0.00 79 1020.2
20210417132316 44 0.0 0.0 0.00 0.00 0.00 78 1020.1
20210417131043 44 0.0 0.0 0.00 0.00 0.00 79 1020.1
20210417130052 44 0.0 0.0 0.00 0.00 0.00 79 1020.0
20210417125217 44 0.0 0.0 0.00 0.00 0.00 79 1020.0
20210417124029 44 0.0 0.0 0.00 0.00 0.00 79 1019.9
20210417123044 45 0.0 0.0 0.00 0.00 0.00 80 1019.9
20210417122513 44 0.0 0.0 0.00 0.00 0.00 81 1019.9
20210417121035 44 0.0 0.0 0.00 0.00 0.00 82 1019.8
20210417115541 45 0.0 0.0 0.00 0.00 0.00 82 1019.8
20210417114027 45 0.0 0.0 0.00 0.00 0.00 84 1019.8
20210417113122 45 0.0 0.0 0.00 0.00 0.00 83 1019.8
20210417112357 45 0.0 0.0 0.00 0.00 0.00 85 1019.7
20210417111030 46 0.0 0.0 0.00 0.00 0.00 86 1019.7
20210417110048 46 0.0 0.0 0.00 0.00 0.00 85 1019.6
20210417105320 46 0.0 0.0 0.00 0.00 0.00 85 1019.6
20210417104042 46 0.0 0.0 0.00 0.00 0.00 84 1019.5
20210417103137 46 0.0 0.0 0.00 0.00 0.00 86 1019.5
20210417102316 47 0.0 0.0 0.00 0.00 0.00 85 1019.5
20210417101031 47 0.0 0.0 0.00 0.00 0.00 84 1019.4
20210417100032 48 0.0 0.0 0.00 0.00 0.00 84 1019.5
20210417095226 48 0.0 0.0 0.00 0.00 0.00 85 1019.5
20210417094052 48 0.0 0.0 0.00 0.00 0.00 83 1019.5
20210417093036 48 0.0 0.0 0.00 0.00 0.00 82 1019.5